Weather History for Monarch Pass, CO

Change the Weather History Date:

Saturday, December 14, 2013

  Actual Average (KGUC) Record (KGUC)
Temperature  
Mean Temperature 10 °F -  
Max Temperature 14 °F 24 °F 46 °F (2006)
Min Temperature 5 °F 0 °F -14 °F (1997)
Degree Days  
Heating Degree Days 56    
Moisture  
Dew Point 4 °F    
Average Humidity 79    
Maximum Humidity 92    
Minimum Humidity 62    
Precipitation  
Precipitation 0.00 in - - ()
Sea Level Pressure  
Sea Level Pressure 30.33 in    
Wind  
Wind Speed 19 mph (WSW)    
Max Wind Speed 32 mph    
Max Gust Speed 37 mph    
Visibility 9 miles    
Events Snow    
Averages and records for this station are not official NWS values.
T = Trace of Precipitation, MM = Missing Value Source: NWS Daily Summary

Daily Weather History Graph

Daily Weather History Graph

Search for Another Location

Airport:

Trip Planner

Search our weather history database for the weather conditions in past years. The results will help you decide how hot, cold, wet, or windy it might be!

Date:

Astronomy

Dec. 14, 2013 Rise Set
Actual Time 7:14 AM MST 4:45 PM MST
Civil Twilight 6:45 AM MST 5:14 PM MST
Nautical Twilight 6:12 AM MST 5:48 PM MST
Astronomical Twilight 5:39 AM MST 6:20 PM MST
Moon 3:07 PM MST (12/14) 4:39 AM MST (12/14)
Length of Visible Light 10h 29m
Length of Day
9h 30m
Waxing Gibbous, 94% of the Moon is Illuminated
Dec 14
Waxing Gibbous
Dec 17
Full
Dec 25
Last Quarter
Jan 1
New
Jan 7
First Quarter

Hourly Weather History & Observations

Time (MST) Temp. Windchill Dew Point Humidity Pressure Visibility Wind Dir Wind Speed Gust Speed Precip Events Conditions
12:17 AM 8.6 °F - 3.2 °F 79% 30.19 in 10.0 mi North - - N/A   Clear
12:37 AM 10.4 °F -3.3 °F 3.2 °F 73% 30.18 in 10.0 mi NW 10.4 mph - N/A   Clear
12:57 AM 8.6 °F - 3.2 °F 79% 30.18 in 10.0 mi North - - N/A   Clear
1:17 AM 8.6 °F - 3.2 °F 79% 30.18 in 10.0 mi North - - N/A   Clear
1:37 AM 8.6 °F - 3.2 °F 79% 30.19 in 10.0 mi North - - N/A   Clear
1:57 AM 8.6 °F - 3.2 °F 79% 30.19 in 10.0 mi North - - N/A   Clear
2:17 AM 8.6 °F - 3.2 °F 79% 30.20 in 10.0 mi North - - N/A   Clear
2:37 AM 8.6 °F - 3.2 °F 79% 30.20 in 10.0 mi North - - N/A   Clear
2:57 AM 8.6 °F - 3.2 °F 79% 30.20 in 10.0 mi North - - N/A   Clear
3:17 AM 8.6 °F - 3.2 °F 79% 30.20 in 10.0 mi North - - N/A   Clear
3:37 AM 6.8 °F - 3.2 °F 85% 30.21 in 10.0 mi North - - N/A   Clear
3:57 AM 6.8 °F - 3.2 °F 85% 30.21 in 10.0 mi North - - N/A   Clear
4:17 AM 5.0 °F - 1.4 °F 85% 30.21 in 10.0 mi North - - N/A   Clear
4:37 AM 5.0 °F - 3.2 °F 92% 30.22 in 10.0 mi North - - N/A   Clear
4:57 AM 6.8 °F - 1.4 °F 79% 30.23 in 10.0 mi North - - N/A   Clear
5:17 AM 5.0 °F -13.6 °F 1.4 °F 85% 30.23 in 10.0 mi West 16.1 mph - N/A   Clear
5:37 AM 5.0 °F - 1.4 °F 85% 30.24 in 10.0 mi North - - N/A   Clear
5:57 AM 6.8 °F - 1.4 °F 79% 30.25 in 10.0 mi North - - N/A   Clear
6:17 AM 6.8 °F - -0.4 °F 72% 30.26 in 10.0 mi North - - N/A   Clear
6:37 AM 6.8 °F - -0.4 °F 72% 30.27 in 10.0 mi North - - N/A   Clear
6:57 AM 8.6 °F - -0.4 °F 67% 30.28 in 10.0 mi North - - N/A   Clear
7:17 AM 8.6 °F - -0.4 °F 67% 30.29 in 10.0 mi North - - N/A   Clear
7:37 AM 8.6 °F - -2.2 °F 62% 30.29 in 10.0 mi North - - N/A   Clear
7:57 AM 8.6 °F - -0.4 °F 67% 30.30 in 10.0 mi North - - N/A   Clear
8:17 AM 8.6 °F - -0.4 °F 67% 30.32 in 10.0 mi North - - N/A   Clear
8:37 AM 8.6 °F - -0.4 °F 67% 30.34 in 10.0 mi North - - N/A   Clear
8:57 AM 8.6 °F -7.0 °F -0.4 °F 67% 30.34 in 10.0 mi West 12.7 mph - N/A   Clear
9:17 AM 8.6 °F - -0.4 °F 67% 30.35 in 10.0 mi North - - N/A   Clear
9:37 AM 8.6 °F - -0.4 °F 67% 30.36 in 10.0 mi North - - N/A   Clear
9:57 AM 8.6 °F -7.7 °F 3.2 °F 79% 30.36 in 10.0 mi WSW 13.8 mph - N/A   Clear
10:17 AM 6.8 °F - 3.2 °F 85% 30.36 in 0.2 mi North - - N/A Snow Light Snow
10:37 AM 8.6 °F - 3.2 °F 79% 30.36 in 0.2 mi North - - N/A Snow Light Snow
10:57 AM 8.6 °F -7.7 °F 5.0 °F 85% 30.37 in 1.2 mi WSW 13.8 mph 19.6 mph N/A   Scattered Clouds
11:17 AM 8.6 °F - 5.0 °F 85% 30.38 in 1.0 mi North - - N/A   Mostly Cloudy
11:37 AM 10.4 °F -8.6 °F 6.8 °F 85% 30.37 in 10.0 mi SW 20.7 mph - N/A   Clear
11:57 AM 10.4 °F - 6.8 °F 85% 30.37 in 10.0 mi North - - N/A   Scattered Clouds
12:17 PM 10.4 °F -10.3 °F 6.8 °F 85% 30.36 in 10.0 mi SW 25.3 mph - N/A   Clear
12:37 PM 12.2 °F -8.2 °F 6.8 °F 79% 30.35 in 10.0 mi SW 26.5 mph 33.4 mph N/A   Clear
12:57 PM 12.2 °F - 6.8 °F 79% 30.36 in 10.0 mi North - - N/A   Clear
1:17 PM 12.2 °F -8.6 °F 6.8 °F 79% 30.36 in 10.0 mi West 27.6 mph 33.4 mph N/A   Clear
1:37 PM 14.0 °F -4.3 °F 5.0 °F 67% 30.37 in 10.0 mi WSW 21.9 mph - N/A   Clear
1:57 PM 14.0 °F -5.5 °F 5.0 °F 67% 30.36 in 10.0 mi SW 25.3 mph - N/A   Clear
2:17 PM 14.0 °F -6.8 °F 5.0 °F 67% 30.36 in 10.0 mi SW 29.9 mph 34.5 mph N/A   Clear
2:37 PM 14.0 °F -6.2 °F 6.8 °F 73% 30.37 in 10.0 mi SW 27.6 mph 33.4 mph N/A   Clear
2:57 PM 14.0 °F -7.4 °F 5.0 °F 67% 30.35 in 10.0 mi SW 32.2 mph 36.8 mph N/A   Clear
3:17 PM 14.0 °F -7.4 °F 6.8 °F 73% 30.35 in 10.0 mi SW 32.2 mph - N/A   Clear
3:37 PM 12.2 °F - 5.0 °F 73% 30.35 in 10.0 mi North - - N/A   Clear
3:57 PM 12.2 °F - 6.8 °F 79% 30.37 in 10.0 mi North - - N/A   Clear
4:17 PM 12.2 °F - 6.8 °F 79% 30.38 in 10.0 mi North - - N/A   Clear
4:37 PM 10.4 °F - 5.0 °F 79% 30.38 in 10.0 mi North - - N/A   Clear
4:57 PM 8.6 °F - 5.0 °F 85% 30.38 in 10.0 mi North - - N/A   Clear
5:17 PM 8.6 °F - 5.0 °F 85% 30.37 in 10.0 mi North - - N/A   Scattered Clouds
5:37 PM 8.6 °F - 6.8 °F 92% 30.38 in 10.0 mi North - - N/A   Scattered Clouds
5:57 PM 8.6 °F - 5.0 °F 85% 30.40 in 10.0 mi North - - N/A   Clear
6:17 PM 10.4 °F - 5.0 °F 79% 30.39 in 10.0 mi North - - N/A   Clear
6:37 PM 8.6 °F - 5.0 °F 85% 30.40 in 10.0 mi North - - N/A   Clear
6:57 PM 8.6 °F - 5.0 °F 85% 30.39 in 10.0 mi North - - N/A   Clear
7:17 PM 8.6 °F - 5.0 °F 85% 30.41 in 10.0 mi North - - N/A   Clear
7:37 PM 8.6 °F - 5.0 °F 85% 30.41 in 10.0 mi North - - N/A   Scattered Clouds
7:57 PM 8.6 °F - 5.0 °F 85% 30.44 in 10.0 mi North - - N/A   Clear
8:17 PM 8.6 °F - 5.0 °F 85% 30.44 in 10.0 mi North - - N/A   Clear
8:37 PM 10.4 °F - 6.8 °F 85% 30.45 in 10.0 mi North - - N/A   Clear
8:57 PM 10.4 °F - 5.0 °F 79% 30.45 in 10.0 mi North - - N/A   Clear
9:17 PM 8.6 °F - 5.0 °F 85% 30.43 in 10.0 mi North - - N/A   Clear
9:37 PM 8.6 °F - 5.0 °F 85% 30.43 in 10.0 mi North - - N/A   Clear
9:57 PM 10.4 °F - 6.8 °F 85% 30.42 in 10.0 mi North - - N/A   Clear
10:17 PM 10.4 °F - 5.0 °F 79% 30.43 in 10.0 mi North - - N/A   Clear
10:37 PM 10.4 °F - 6.8 °F 85% 30.42 in 10.0 mi North - - N/A   Clear
10:57 PM 10.4 °F - 5.0 °F 79% 30.42 in 10.0 mi North - - N/A   Clear
11:17 PM 8.6 °F - 5.0 °F 85% 30.42 in 10.0 mi North - - N/A   Clear
11:37 PM 8.6 °F - 5.0 °F 85% 30.41 in 10.0 mi North - - N/A   Scattered Clouds
11:57 PM 8.6 °F - 5.0 °F 85% 30.40 in 5.0 mi North - - N/A   Overcast